Location: Fort Worth, Tx
(32.7431°N, 97.3695°W)
Time: 14:24:47
(UTC-04:00)

Transit 2A - Pass Details

Date: 22 February 2024
Orbit: 596 x 956 km, 66.7° (Epoch: 20 April)

Event Time Altitude Azimuth Distance (km) Brightness Sun altitude
Rises 21:25:38 0° 213° (SSW) 2,927 9.4 -27.0°
Reaches altitude 10° 21:27:59 10° 217° (SW) 1,985 8.5 -27.4°
Enters shadow 21:31:18 45° 244° (WSW) 830 6.4 -28.1°
